EW0609 Weather Reports


Display with metric or nautical units.
time (UTC)temp
F
wind
direction
speed
MPH
gust
MPH
rain 1hr
in
rain 24hr
in
rain mn
in
humidity
%
barometer
mb
20260831014259 89 140 4.0 12.0 0.00 0.00 0.00 33 1014.0
20260831013758 89 168 5.0 13.0 0.00 0.00 0.00 33 1013.9
20260831013255 90 212 5.0 13.0 0.00 0.00 0.00 33 1013.9
20260831012756 90 138 7.0 14.0 0.00 0.00 0.00 33 1013.9
20260831012257 90 140 4.0 14.0 0.00 0.00 0.00 32 1013.9
20260831012210 91 179 4.0 12.0 0.00 0.00 0.00 32 1013.9
20260831011255 91 168 5.0 13.0 0.00 0.00 0.00 32 1013.9
20260831010758 91 168 6.0 13.0 0.00 0.00 0.00 31 1013.8
20260831010255 92 166 4.0 12.0 0.00 0.00 0.00 31 1013.7
20260831005755 92 121 5.0 11.0 0.00 0.00 0.00 31 1013.8
20260831005257 92 152 5.0 12.0 0.00 0.00 0.00 31 1013.8
20260831004800 93 133 6.0 15.0 0.00 0.00 0.00 30 1013.6
20260831004523 93 131 8.0 16.0 0.00 0.00 0.00 30 1013.6
20260831003759 93 128 6.0 16.0 0.00 0.00 0.00 29 1013.6
20260831003255 93 182 6.0 18.0 0.00 0.00 0.00 30 1013.6
20260831002755 94 134 8.0 18.0 0.00 0.00 0.00 29 1013.6
20260831002255 94 159 5.0 16.0 0.00 0.00 0.00 29 1013.6
20260831001755 94 151 6.0 17.0 0.00 0.00 0.00 30 1013.5
20260831001257 95 157 8.0 17.0 0.00 0.00 0.00 28 1013.6
20260831000755 95 169 4.0 17.0 0.00 0.00 0.00 28 1013.5
20260831000256 95 182 7.0 17.0 0.00 0.00 0.00 27 1013.6
20260830235755 96 216 5.0 17.0 0.00 0.00 0.00 28 1013.6
20260830235642 96 161 8.0 17.0 0.00 0.00 0.00 27 1013.6
20260830234755 96 224 8.0 16.0 0.00 0.00 0.00 28 1013.6
20260830234254 97 107 6.0 17.0 0.00 0.00 0.00 27 1013.6
20260830233757 97 131 7.0 16.0 0.00 0.00 0.00 28 1013.6
20260830233255 97 185 5.0 16.0 0.00 0.00 0.00 27 1013.6
20260830232758 97 213 6.0 16.0 0.00 0.00 0.00 27 1013.6
20260830232305 97 173 6.0 15.0 0.00 0.00 0.00 27 1013.6
20260830231756 98 164 6.0 16.0 0.00 0.00 0.00 27 1013.7
20260830231259 98 192 9.0 16.0 0.00 0.00 0.00 27 1013.7
20260830231205 98 80 7.0 15.0 0.00 0.00 0.00 27 1013.8
20260830230256 98 142 7.0 18.0 0.00 0.00 0.00 27 1013.7
20260830225755 98 176 8.0 20.0 0.00 0.00 0.00 26 1013.5
20260830225255 98 169 7.0 20.0 0.00 0.00 0.00 27 1013.6
20260830224758 98 165 9.0 19.0 0.00 0.00 0.00 27 1013.6
20260830224255 98 168 6.0 19.0 0.00 0.00 0.00 27 1013.6
20260830223755 99 130 7.0 14.0 0.00 0.00 0.00 27 1013.6
20260830223257 99 188 5.0 15.0 0.00 0.00 0.00 26 1013.8
20260830222756 99 158 6.0 15.0 0.00 0.00 0.00 27 1013.7
20260830222301 99 166 7.0 15.0 0.00 0.00 0.00 26 1013.7
20260830221755 99 185 6.0 15.0 0.00 0.00 0.00 26 1013.7
20260830221615 99 226 4.0 15.0 0.00 0.00 0.00 26 1013.7
20260830220756 99 234 4.0 15.0 0.00 0.00 0.00 26 1013.7
20260830220301 99 195 6.0 13.0 0.00 0.00 0.00 26 1013.8
20260830215757 100 317 4.0 16.0 0.00 0.00 0.00 26 1013.8
20260830215257 99 196 9.0 16.0 0.00 0.00 0.00 26 1013.8
20260830214757 100 158 4.0 18.0 0.00 0.00 0.00 26 1013.7
20260830214255 100 173 8.0 18.0 0.00 0.00 0.00 26 1013.9
20260830213755 100 192 6.0 13.0 0.00 0.00 0.00 27 1013.8
20260830213256 100 262 7.0 13.0 0.00 0.00 0.00 27 1013.9
20260830213031 101 104 6.0 15.0 0.00 0.00 0.00 27 1014.2
20260830212921 100 140 4.0 14.0 0.00 0.00 0.00 26 1014.0
20260830211754 100 227 9.0 18.0 0.00 0.00 0.00 28 1014.2
20260830211256 100 223 9.0 18.0 0.00 0.00 0.00 28 1014.2
20260830210759 100 159 9.0 17.0 0.00 0.00 0.00 28 1014.4
20260830210644 100 168 6.0 15.0 0.00 0.00 0.00 28 1014.4
20260830205757 99 134 7.0 16.0 0.00 0.00 0.00 27 1014.5
20260830205257 100 220 6.0 16.0 0.00 0.00 0.00 27 1014.7
20260830205147 100 148 8.0 20.0 0.00 0.00 0.00 27 1014.7
20260830204255 100 168 6.0 20.0 0.00 0.00 0.00 28 1014.7
20260830203756 100 172 6.0 14.0 0.00 0.00 0.00 28 1014.6
20260830203255 100 241 8.0 14.0 0.00 0.00 0.00 27 1015.1
20260830203141 100 182 7.0 16.0 0.00 0.00 0.00 27 1014.9
20260830202255 100 144 5.0 16.0 0.00 0.00 0.00 28 1015.1
20260830201755 100 193 6.0 15.0 0.00 0.00 0.00 28 1015.1
20260830201256 100 179 8.0 15.0 0.00 0.00 0.00 28 1015.2
20260830200755 99 204 10.0 15.0 0.00 0.00 0.00 27 1015.2
20260830200255 99 180 6.0 17.0 0.00 0.00 0.00 27 1015.3
20260830195759 100 165 8.0 17.0 0.00 0.00 0.00 28 1015.4
20260830195256 100 144 5.0 23.0 0.00 0.00 0.00 27 1015.2
20260830194757 99 228 7.0 23.0 0.00 0.00 0.00 28 1015.5
20260830194254 100 230 7.0 16.0 0.00 0.00 0.00 29 1015.5
20260830194137 100 133 6.0 18.0 0.00 0.00 0.00 28 1015.3
20260830193257 99 220 10.0 18.0 0.00 0.00 0.00 28 1015.3
20260830192755 99 202 6.0 14.0 0.00 0.00 0.00 28 1015.4
20260830192255 99 196 6.0 15.0 0.00 0.00 0.00 29 1015.5
20260830191755 99 241 9.0 24.0 0.00 0.00 0.00 29 1015.5
20260830191254 98 210 10.0 24.0 0.00 0.00 0.00 28 1015.6
20260830190756 98 152 9.0 19.0 0.00 0.00 0.00 29 1015.6
20260830190255 98 257 7.0 19.0 0.00 0.00 0.00 30 1015.6
20260830185755 98 188 8.0 19.0 0.00 0.00 0.00 29 1015.7
20260830185254 98 190 10.0 17.0 0.00 0.00 0.00 29 1015.9
20260830184755 97 190 5.0 17.0 0.00 0.00 0.00 29 1015.8
20260830184254 98 168 8.0 17.0 0.00 0.00 0.00 29 1015.9
20260830183755 98 179 7.0 21.0 0.00 0.00 0.00 31 1016.1
20260830183653 98 213 10.0 21.0 0.00 0.00 0.00 31 1016.2
20260830182755 97 175 7.0 21.0 0.00 0.00 0.00 31 1016.1
20260830182254 97 217 9.0 21.0 0.00 0.00 0.00 32 1016.3
20260830181754 97 209 8.0 21.0 0.00 0.00 0.00 31 1016.2
20260830181559 96 137 10.0 21.0 0.00 0.00 0.00 33 1016.2
20260830180756 96 209 9.0 17.0 0.00 0.00 0.00 33 1016.3
20260830180256 96 197 9.0 19.0 0.00 0.00 0.00 35 1016.4
20260830175757 96 161 9.0 21.0 0.00 0.00 0.00 34 1016.5
20260830175254 96 230 9.0 23.0 0.00 0.00 0.00 34 1016.5
20260830174755 96 151 9.0 23.0 0.00 0.00 0.00 34 1016.6
20260830174255 96 214 7.0 15.0 0.00 0.00 0.00 36 1016.6
20260830173753 96 234 7.0 22.0 0.00 0.00 0.00 36 1016.7
20260830173255 95 159 9.0 22.0 0.00 0.00 0.00 36 1016.8
20260830172754 94 186 6.0 18.0 0.00 0.00 0.00 37 1016.8
20260830172629 95 182 9.0 18.0 0.00 0.00 0.00 37 1016.8
20260830171759 94 230 8.0 17.0 0.00 0.00 0.00 38 1016.8
20260830171254 94 176 9.0 20.0 0.00 0.00 0.00 39 1016.9
20260830170754 93 207 11.0 20.0 0.00 0.00 0.00 39 1016.9
20260830170256 93 220 7.0 21.0 0.00 0.00 0.00 39 1017.1
20260830170138 92 168 7.0 21.0 0.00 0.00 0.00 40 1017.1
20260830165256 92 230 11.0 18.0 0.00 0.00 0.00 40 1016.9
20260830164754 92 243 7.0 16.0 0.00 0.00 0.00 42 1017.1
20260830164255 92 159 6.0 18.0 0.00 0.00 0.00 41 1017.1
20260830163754 91 192 9.0 18.0 0.00 0.00 0.00 43 1017.2
20260830163627 90 212 11.0 18.0 0.00 0.00 0.00 43 1017.1
20260830162800 90 158 8.0 20.0 0.00 0.00 0.00 44 1017.3
20260830162256 90 149 9.0 23.0 0.00 0.00 0.00 44 1017.2
20260830161754 89 250 7.0 23.0 0.00 0.00 0.00 44 1017.2
20260830161254 89 148 11.0 21.0 0.00 0.00 0.00 44 1017.2
20260830161125 89 209 13.0 21.0 0.00 0.00 0.00 46 1017.1
20260830160254 88 221 8.0 21.0 0.00 0.00 0.00 46 1017.1
20260830155755 88 207 10.0 19.0 0.00 0.00 0.00 46 1017.2
20260830155523 87 206 6.0 17.0 0.00 0.00 0.00 46 1017.2
20260830155422 88 237 8.0 19.0 0.00 0.00 0.00 47 1017.1
20260830154254 87 230 6.0 16.0 0.00 0.00 0.00 48 1017.1
20260830153757 86 247 10.0 16.0 0.00 0.00 0.00 48 1017.2
20260830153256 86 185 8.0 16.0 0.00 0.00 0.00 49 1017.1
20260830152754 86 226 6.0 14.0 0.00 0.00 0.00 48 1017.2
20260830152255 86 196 7.0 20.0 0.00 0.00 0.00 50 1017.2
20260830151757 85 199 7.0 20.0 0.00 0.00 0.00 49 1017.2
20260830151256 85 213 6.0 16.0 0.00 0.00 0.00 51 1017.2
20260830150757 85 196 9.0 17.0 0.00 0.00 0.00 51 1017.3
20260830150254 84 195 5.0 17.0 0.00 0.00 0.00 51 1017.4
20260830145754 84 176 9.0 19.0 0.00 0.00 0.00 52 1017.4
20260830145635 83 226 8.0 19.0 0.00 0.00 0.00 52 1017.4
20260830144755 83 176 6.0 15.0 0.00 0.00 0.00 53 1017.3
20260830144254 82 141 9.0 15.0 0.00 0.00 0.00 52 1017.4
20260830143756 82 183 8.0 16.0 0.00 0.00 0.00 54 1017.3
20260830143254 81 226 5.0 16.0 0.00 0.00 0.00 54 1017.3
20260830142754 81 192 8.0 15.0 0.00 0.00 0.00 55 1017.4
20260830142254 81 230 5.0 18.0 0.00 0.00 0.00 55 1017.4
20260830142126 80 237 7.0 18.0 0.00 0.00 0.00 55 1017.4
20260830141624 80 226 6.0 17.0 0.00 0.00 0.00 56 1017.4
20260830140754 80 216 7.0 17.0 0.00 0.00 0.00 55 1017.4
20260830140254 79 124 5.0 15.0 0.00 0.00 0.00 56 1017.4
20260830140130 79 183 6.0 15.0 0.00 0.00 0.00 57 1017.5
20260830135343 78 196 5.0 12.0 0.00 0.00 0.00 57 1017.3
20260830135336 78 207 7.0 12.0 0.00 0.00 0.00 57 1017.4
20260830135317 78 226 6.0 13.0 0.00 0.00 0.00 57 1017.5
20260830133755 78 216 5.0 12.0 0.00 0.00 0.00 57 1017.3
20260830133256 78 254 6.0 15.0 0.00 0.00 0.00 57 1017.3
20260830132756 78 180 4.0 15.0 0.00 0.00 0.00 57 1017.2
20260830132255 78 237 7.0 14.0 0.00 0.00 0.00 57 1017.1
20260830131754 77 196 6.0 13.0 0.00 0.00 0.00 57 1016.9
20260830131255 77 245 5.0 14.0 0.00 0.00 0.00 57 1016.9
20260830130754 77 207 6.0 15.0 0.00 0.00 0.00 57 1016.9
20260830130255 77 265 6.0 15.0 0.00 0.00 0.00 57 1016.9
20260830125756 77 213 7.0 17.0 0.00 0.00 0.00 57 1016.8
20260830125254 77 272 5.0 17.0 0.00 0.00 0.00 56 1016.8
20260830125128 77 193 6.0 15.0 0.00 0.00 0.00 56 1016.8
20260830124622 77 186 6.0 17.0 0.00 0.00 0.00 56 1016.8
20260830123754 77 203 8.0 17.0 0.00 0.00 0.00 56 1016.7
20260830123255 77 209 7.0 17.0 0.00 0.00 0.00 56 1016.7
20260830122755 76 190 7.0 17.0 0.00 0.00 0.00 56 1016.7
20260830122256 77 230 7.0 19.0 0.00 0.00 0.00 56 1016.7
20260830121755 77 197 5.0 19.0 0.00 0.00 0.00 56 1016.6
20260830121629 77 219 7.0 20.0 0.00 0.00 0.00 55 1016.6
20260830121059 77 206 9.0 20.0 0.00 0.00 0.00 55 1016.5
20260830120254 77 245 6.0 13.0 0.00 0.00 0.00 56 1016.5
20260830115755 77 195 7.0 13.0 0.00 0.00 0.00 56 1016.4
20260830115716 77 216 6.0 15.0 0.00 0.00 0.00 55 1016.4
20260830114910 77 224 8.0 15.0 0.00 0.00 0.00 55 1016.4
20260830114125 77 213 5.0 17.0 0.00 0.00 0.00 55 1016.4
20260830113254 77 233 8.0 17.0 0.00 0.00 0.00 55 1016.4
20260830113122 76 192 5.0 14.0 0.00 0.00 0.00 55 1016.5
20260830112635 76 168 6.0 14.0 0.00 0.00 0.00 54 1016.5
20260830111755 76 210 5.0 11.0 0.00 0.00 0.00 54 1016.5
20260830111255 76 199 4.0 11.0 0.00 0.00 0.00 54 1016.4
20260830110754 76 228 5.0 10.0 0.00 0.00 0.00 53 1016.4
20260830110637 77 212 3.0 11.0 0.00 0.00 0.00 53 1016.3
20260830105755 77 166 5.0 14.0 0.00 0.00 0.00 53 1016.3
20260830105255 77 220 8.0 14.0 0.00 0.00 0.00 52 1016.1
20260830104755 77 189 6.0 14.0 0.00 0.00 0.00 52 1016.1
20260830104254 77 199 6.0 14.0 0.00 0.00 0.00 52 1016.2
20260830103756 77 220 4.0 12.0 0.00 0.00 0.00 52 1016.2
20260830103633 76 180 5.0 12.0 0.00 0.00 0.00 52 1016.2
20260830102754 76 213 5.0 11.0 0.00 0.00 0.00 53 1016.2
20260830102633 76 142 5.0 12.0 0.00 0.00 0.00 53 1016.2
20260830101754 76 233 6.0 12.0 0.00 0.00 0.00 52 1016.2
20260830101257 76 207 3.0 13.0 0.00 0.00 0.00 52 1016.2
20260830100755 77 158 4.0 13.0 0.00 0.00 0.00 51 1016.2
20260830100256 77 223 5.0 12.0 0.00 0.00 0.00 51 1016.1
20260830095755 77 223 5.0 12.0 0.00 0.00 0.00 50 1016.1
20260830095254 77 182 5.0 11.0 0.00 0.00 0.00 51 1016.1
20260830094757 77 214 7.0 11.0 0.00 0.00 0.00 51 1015.8
20260830094254 77 227 6.0 10.0 0.00 0.00 0.00 51 1015.8
20260830094054 77 140 6.0 12.0 0.00 0.00 0.00 51 1015.8
20260830093255 77 230 6.0 12.0 0.00 0.00 0.00 50 1015.9
20260830092753 77 197 6.0 11.0 0.00 0.00 0.00 50 1015.9
20260830092255 77 199 6.0 15.0 0.00 0.00 0.00 50 1016.1
20260830091755 77 226 6.0 15.0 0.00 0.00 0.00 50 1016.1
20260830091300 77 210 7.0 13.0 0.00 0.00 0.00 49 1016.1
20260830090754 77 233 5.0 12.0 0.00 0.00 0.00 49 1016.1
20260830090255 77 171 6.0 12.0 0.00 0.00 0.00 49 1016.1
20260830085754 77 223 5.0 12.0 0.00 0.00 0.00 49 1015.9
20260830085256 77 165 5.0 11.0 0.00 0.00 0.00 49 1015.9
20260830085002 78 154 6.0 14.0 0.00 0.00 0.00 48 1015.9
20260830084913 77 165 6.0 14.0 0.00 0.00 0.00 49 1016.1
20260830084125 78 197 6.0 13.0 0.00 0.00 0.00 47 1015.9
20260830083254 78 176 7.0 13.0 0.00 0.00 0.00 47 1015.9
20260830082755 78 149 5.0 13.0 0.00 0.00 0.00 47 1015.9
20260830082258 78 159 6.0 14.0 0.00 0.00 0.00 47 1015.9
20260830081755 78 204 8.0 14.0 0.00 0.00 0.00 46 1015.9
20260830081257 78 182 5.0 12.0 0.00 0.00 0.00 47 1016.1
20260830080754 78 179 7.0 15.0 0.00 0.00 0.00 46 1016.1
20260830080258 78 169 7.0 15.0 0.00 0.00 0.00 47 1016.2
20260830075755 78 240 6.0 13.0 0.00 0.00 0.00 47 1016.2
20260830075254 78 185 6.0 13.0 0.00 0.00 0.00 47 1016.3
20260830074754 78 223 6.0 12.0 0.00 0.00 0.00 48 1016.3
20260830074253 78 149 7.0 11.0 0.00 0.00 0.00 47 1016.3
20260830073753 78 227 5.0 13.0 0.00 0.00 0.00 47 1016.3
20260830073254 79 145 6.0 13.0 0.00 0.00 0.00 47 1016.4
20260830072755 79 176 5.0 13.0 0.00 0.00 0.00 47 1016.4
20260830072617 79 196 5.0 13.0 0.00 0.00 0.00 46 1016.4
20260830071801 79 217 8.0 13.0 0.00 0.00 0.00 47 1016.6
20260830071254 79 168 6.0 13.0 0.00 0.00 0.00 46 1016.6
20260830071057 79 183 6.0 13.0 0.00 0.00 0.00 46 1016.5
20260830070255 79 169 6.0 14.0 0.00 0.00 0.00 46 1016.4
20260830065754 79 204 5.0 14.0 0.00 0.00 0.00 46 1016.4
20260830065626 79 193 7.0 12.0 0.00 0.00 0.00 46 1016.6
20260830064753 79 179 6.0 14.0 0.00 0.00 0.00 46 1016.6
20260830064253 80 207 7.0 14.0 0.00 0.00 0.00 47 1016.7
20260830063754 80 175 6.0 14.0 0.00 0.00 0.00 46 1016.6
20260830063259 80 202 7.0 14.0 0.00 0.00 0.00 46 1016.6
20260830062753 80 171 7.0 14.0 0.00 0.00 0.00 46 1016.5
20260830062258 80 197 7.0 14.0 0.00 0.00 0.00 46 1016.6
20260830061753 80 283 5.0 17.0 0.00 0.00 0.00 46 1016.6
20260830061633 80 151 6.0 17.0 0.00 0.00 0.00 46 1016.5
20260830060753 81 219 5.0 15.0 0.00 0.00 0.00 45 1016.6
20260830060627 81 169 7.0 16.0 0.00 0.00 0.00 45 1016.6
20260830055755 81 206 7.0 16.0 0.00 0.00 0.00 45 1016.5
20260830055254 81 185 6.0 14.0 0.00 0.00 0.00 44 1016.5
20260830054754 81 214 7.0 17.0 0.00 0.00 0.00 44 1016.4
20260830054253 82 169 6.0 17.0 0.00 0.00 0.00 43 1016.5
20260830053754 82 227 7.0 14.0 0.00 0.00 0.00 43 1016.5
20260830053255 82 165 6.0 16.0 0.00 0.00 0.00 43 1016.5
20260830052754 82 188 6.0 16.0 0.00 0.00 0.00 43 1016.4
20260830052257 82 202 7.0 14.0 0.00 0.00 0.00 42 1016.4
20260830051754 83 159 6.0 13.0 0.00 0.00 0.00 42 1016.4
20260830051255 83 182 7.0 17.0 0.00 0.00 0.00 42 1016.5
20260830050754 83 135 8.0 17.0 0.00 0.00 0.00 42 1016.4
20260830050633 83 241 5.0 16.0 0.00 0.00 0.00 42 1016.5
20260830045753 83 164 6.0 16.0 0.00 0.00 0.00 41 1016.4
20260830045740 83 235 7.0 13.0 0.00 0.00 0.00 41 1016.4
20260830044922 83 182 7.0 13.0 0.00 0.00 0.00 41 1016.4
20260830044135 84 99 6.0 16.0 0.00 0.00 0.00 40 1016.4
20260830043255 83 165 7.0 16.0 0.00 0.00 0.00 41 1016.5
20260830042753 84 207 6.0 15.0 0.00 0.00 0.00 41 1016.5
20260830042255 83 144 8.0 15.0 0.00 0.00 0.00 41 1016.4
20260830041755 84 127 6.0 14.0 0.00 0.00 0.00 41 1016.5
20260830041256 84 130 5.0 15.0 0.00 0.00 0.00 40 1016.5
20260830041146 84 169 7.0 15.0 0.00 0.00 0.00 40 1016.6
20260830040253 84 123 6.0 15.0 0.00 0.00 0.00 40 1016.5
20260830035755 84 165 7.0 15.0 0.00 0.00 0.00 40 1016.5
20260830035253 84 203 6.0 15.0 0.00 0.00 0.00 40 1016.4
20260830034754 84 175 5.0 13.0 0.00 0.00 0.00 40 1016.3
20260830034254 84 166 6.0 15.0 0.00 0.00 0.00 40 1016.3
20260830033757 84 189 6.0 15.0 0.00 0.00 0.00 40 1016.2
20260830033254 84 157 6.0 14.0 0.00 0.00 0.00 40 1016.2
20260830032754 85 154 5.0 14.0 0.00 0.00 0.00 39 1016.2
20260830032254 85 130 7.0 15.0 0.00 0.00 0.00 39 1016.2
20260830031753 85 182 5.0 15.0 0.00 0.00 0.00 39 1016.2
20260830031253 85 173 7.0 15.0 0.00 0.00 0.00 39 1016.1
20260830030755 85 94 5.0 14.0 0.00 0.00 0.00 39 1015.9
20260830030516 85 169 5.0 13.0 0.00 0.00 0.00 39 1016.1
20260830030256 85 169 5.0 13.0 0.00 0.00 0.00 39 1016.1
20260830025754 85 165 5.0 13.0 0.00 0.00 0.00 39 1015.9
20260830025253 86 141 6.0 13.0 0.00 0.00 0.00 38 1015.9
20260830024753 86 171 6.0 12.0 0.00 0.00 0.00 38 1015.8
20260830024622 86 145 7.0 16.0 0.00 0.00 0.00 38 1015.7
20260830024135 86 197 5.0 16.0 0.00 0.00 0.00 38 1015.6
20260830023619 86 128 5.0 13.0 0.00 0.00 0.00 37 1015.6
20260830023018 87 145 6.0 13.0 0.00 0.00 0.00 37 1015.5
20260830022756 87 145 6.0 13.0 0.00 0.00 0.00 37 1015.5
20260830022631 87 130 4.0 12.0 0.00 0.00 0.00 37 1015.5
20260830021754 87 145 6.0 13.0 0.00 0.00 0.00 37 1015.3
20260830021253 87 178 6.0 15.0 0.00 0.00 0.00 36 1015.3
20260830020754 88 158 6.0 15.0 0.00 0.00 0.00 36 1015.2
20260830020255 88 145 6.0 13.0 0.00 0.00 0.00 36 1015.2
20260830015756 88 227 4.0 16.0 0.00 0.00 0.00 36 1015.1
20260830015253 89 152 6.0 16.0 0.00 0.00 0.00 35 1014.9
20260830014754 89 162 6.0 13.0 0.00 0.00 0.00 36 1014.9